Weather History for KPHD - May, 2013

Change the Weather History Date:

Thursday, May 23, 2013

  Actual Average Record
Temperature  
Mean Temperature 60 °F 62 °F  
Max Temperature 76 °F 74 °F 88 °F (1991)
Min Temperature 44 °F 50 °F 30 °F (2002)
Degree Days  
Heating Degree Days 5 5  
Month to date heating degree days 83 163  
Since 1 July heating degree days 5523 5578  
Cooling Degree Days 0 2  
Month to date cooling degree days 52 17  
Year to date cooling degree days 64 24  
Growing Degree Days 10 (Base 50)    
Moisture  
Dew Point 55 °F    
Average Humidity 71    
Maximum Humidity 93    
Minimum Humidity 49    
Precipitation  
Precipitation 0.02 in 0.16 in 0.99 in (1983)
Month to date precipitation 1.51 2.99  
Year to date precipitation 9.58 14.42  
Sea Level Pressure  
Sea Level Pressure 29.85 in    
Wind  
Wind Speed 9 mph (West)    
Max Wind Speed 22 mph    
Max Gust Speed 30 mph    
Visibility 9 miles    
Events Rain , Thunderstorm    
T = Trace of Precipitation, MM = Missing Value Source: NWS Daily Summary

Daily Weather History Graph

Daily Weather History Graph

Search for Another Location

Airport or City:

Trip Planner

Search our weather history database for the weather conditions in past years. The results will help you decide how hot, cold, wet, or windy it might be!

Date:

Astronomy

May. 23, 2013 Rise Set
Actual Time 6:02 AM EDT 8:42 PM EDT
Civil Twilight 5:30 AM EDT 9:14 PM EDT
Nautical Twilight 4:51 AM EDT 9:54 PM EDT
Astronomical Twilight 4:06 AM EDT 10:39 PM EDT
Moon 7:13 PM EDT (5/23) 4:46 AM EDT (5/23)
Length of Visible Light 15h 44m
Length of Day
14h 40m
Waxing Gibbous, 97% of the Moon is Illuminated
May 23
Waxing Gibbous
May 25
Full
May 31
Last Quarter
Jun 8
New
Jun 16
First Quarter

Hourly Weather History & Observations

Time (EDT) Temp. Windchill Dew Point Humidity Pressure Visibility Wind Dir Wind Speed Gust Speed Precip Events Conditions
12:17 AM 66.2 °F - 62.6 °F 88% 29.79 in 8.0 mi SE 6.9 mph - 0.04 in Rain , Thunderstorm Light Rain
12:32 AM 66.2 °F - 62.6 °F 88% 29.81 in 10.0 mi South 5.8 mph - 0.04 in   Overcast
12:53 AM 66.0 °F - 63.0 °F 90% 29.79 in 10.0 mi Calm Calm - 0.04 in   Overcast
1:53 AM 66.0 °F - 62.1 °F 87% 29.79 in 10.0 mi Variable 5.8 mph - N/A   Partly Cloudy
2:53 AM 64.9 °F - 61.0 °F 87% 29.79 in 10.0 mi SSW 4.6 mph - N/A   Scattered Clouds
3:53 AM 64.9 °F - 61.0 °F 87% 29.79 in 10.0 mi Variable 4.6 mph - N/A   Overcast
4:06 AM 64.4 °F - 60.8 °F 88% 29.81 in 10.0 mi Variable 4.6 mph - N/A   Overcast
4:53 AM 64.9 °F - 61.0 °F 87% 29.79 in 10.0 mi South 4.6 mph - N/A   Overcast
5:53 AM 64.0 °F - 60.1 °F 87% 29.80 in 10.0 mi South 4.6 mph - N/A   Mostly Cloudy
6:22 AM 64.4 °F - 60.8 °F 88% 29.82 in 10.0 mi SSE 4.6 mph - N/A   Scattered Clouds
6:53 AM 63.0 °F - 60.1 °F 90% 29.81 in 10.0 mi Calm Calm - N/A   Scattered Clouds
7:12 AM 64.4 °F - 60.8 °F 88% 29.84 in 10.0 mi Variable 3.5 mph - N/A   Mostly Cloudy
7:53 AM 64.9 °F - 60.1 °F 84% 29.83 in 10.0 mi South 6.9 mph - N/A   Overcast
8:44 AM 66.2 °F - 60.8 °F 83% 29.85 in 10.0 mi WSW 6.9 mph - N/A   Mostly Cloudy
8:53 AM 66.9 °F - 60.1 °F 79% 29.83 in 10.0 mi SSW 10.4 mph - N/A   Mostly Cloudy
9:53 AM 66.0 °F - 59.0 °F 78% 29.85 in 10.0 mi Variable 6.9 mph - N/A   Overcast
10:53 AM 70.0 °F - 60.1 °F 71% 29.84 in 10.0 mi SSW 6.9 mph - N/A   Overcast
11:53 AM 69.1 °F - 59.0 °F 70% 29.83 in 10.0 mi SW 8.1 mph - 0.00 in Rain Light Rain
12:53 PM 71.1 °F - 59.0 °F 66% 29.81 in 10.0 mi WSW 8.1 mph - 0.00 in   Mostly Cloudy
1:53 PM 73.9 °F - 55.9 °F 53% 29.79 in 10.0 mi SW 10.4 mph - N/A Thunderstorm Partly Cloudy
2:09 PM 71.6 °F - 53.6 °F 53% 29.81 in 10.0 mi West 10.4 mph 18.4 mph N/A   Scattered Clouds
2:53 PM 73.0 °F - 55.0 °F 53% 29.78 in 8.0 mi Variable 6.9 mph 18.4 mph N/A   Mostly Cloudy
3:53 PM 73.9 °F - 55.0 °F 52% 29.78 in 10.0 mi WSW 11.5 mph 18.4 mph 0.00 in   Scattered Clouds
4:53 PM 73.0 °F - 54.0 °F 51% 29.78 in 10.0 mi WNW 12.7 mph 20.7 mph N/A   Mostly Cloudy
5:53 PM 71.1 °F - 51.1 °F 49% 29.80 in 10.0 mi West 16.1 mph 26.5 mph N/A   Overcast
6:53 PM 66.9 °F - 54.0 °F 63% 29.83 in 10.0 mi WNW 11.5 mph 20.7 mph N/A   Overcast
7:44 PM 60.8 °F - 53.6 °F 77% 29.87 in 10.0 mi NW 16.1 mph 23.0 mph N/A   Overcast
7:53 PM 55.9 °F - 52.0 °F 87% 29.87 in 4.0 mi NW 12.7 mph 25.3 mph 0.00 in Rain Light Rain
8:15 PM 51.8 °F - 48.2 °F 88% 29.91 in 4.0 mi NW 15.0 mph 26.5 mph 0.01 in Rain Light Rain
8:25 PM 51.8 °F - 48.2 °F 88% 29.92 in 5.0 mi NNW 18.4 mph 25.3 mph 0.01 in Rain Light Rain
8:35 PM 50.0 °F - 46.4 °F 87% 29.93 in 7.0 mi NW 18.4 mph 29.9 mph 0.02 in Rain Light Rain
8:53 PM 48.9 °F - 45.0 °F 86% 29.94 in 10.0 mi NNW 13.8 mph 24.2 mph 0.02 in   Overcast
9:13 PM 48.2 °F - 44.6 °F 87% 29.94 in 10.0 mi NNW 10.4 mph 19.6 mph 0.00 in   Overcast
9:48 PM 46.4 °F 40.1 °F 42.8 °F 87% 29.96 in 10.0 mi NW 15.0 mph 20.7 mph 0.00 in   Overcast
9:53 PM 46.9 °F - 43.0 °F 86% 29.97 in 10.0 mi NNW 11.5 mph 20.7 mph 0.00 in   Overcast
10:53 PM 46.0 °F 39.9 °F 39.9 °F 79% 30.00 in 10.0 mi NNW 13.8 mph 24.2 mph N/A   Overcast
11:53 PM 45.0 °F 38.9 °F 39.9 °F 82% 30.02 in 10.0 mi NNW 12.7 mph - N/A   Overcast